Weather observations for the past three days for
Glenwood Municipal Airport
| Date | Time (cdt) | Wind (mph) | Vis. (mi.) | Weather | Sky Cond. | Temperature (ºF) | Relative Humidity | Wind Chill (°F) | Heat Index (°F) | Pressure | Precipitation (in) | ||||||
|---|---|---|---|---|---|---|---|---|---|---|---|---|---|---|---|---|---|
| Air | Dwpt | 6 hour | altimeter (in) | sea level (mb) | 1 hr | 3 hr | 6 hr | ||||||||||
| Max. | Min. | ||||||||||||||||
| 08 | 07:15 | SW 8 | 8.00 | Overcast | BKN095 OVC120 | 42.8 | 30.9 | 63% | 39 | 29.74 | 0.0 | ||||||
| 08 | 06:55 | W 6 | 7.00 | Overcast | OVC090 | 42.1 | 28.2 | 58% | 39 | 29.75 | 0.0 | ||||||
| 08 | 06:35 | SW 8 | 9.00 | Overcast | OVC095 | 40.3 | 25.9 | 57% | 35 | 29.74 | 0.0 | ||||||
| 08 | 06:15 | SW 8 | 9.00 | Overcast | OVC085 | 39.2 | 25.2 | 57% | 34 | 29.73 | 0.0 | ||||||
| 08 | 05:55 | W 8 | 9.00 | Mostly Cloudy | BKN085 | 39.4 | 25.3 | 57% | 34 | 29.74 | 0.0 | ||||||
| 08 | 05:35 | SW 9 | 10.00 | Fair | CLR | 38.5 | 24.4 | 57% | 33 | 29.74 | 0.0 | ||||||
| 08 | 05:15 | SW 8 | 10.00 | A Few Clouds | FEW170 | 38.5 | 24.3 | 57% | 33 | 29.74 | 0.0 | ||||||
| 08 | 04:55 | SW 8 | 10.00 | A Few Clouds | FEW170 | 39 | 24.8 | 57% | 34 | 29.74 | 0.0 | ||||||
| 08 | 04:35 | SW 9 | 10.00 | Fair | CLR | 37.9 | 26.8 | 64% | 32 | 29.75 | 0.0 | ||||||
| 08 | 04:15 | SW 8 | 10.00 | Fair | CLR | 39.4 | 28.6 | 65% | 34 | 29.75 | 0.0 | ||||||
| 08 | 03:55 | SW 8 | 10.00 | Fair | CLR | 39.9 | 27.5 | 61% | 35 | 29.75 | 0.0 | ||||||
| 08 | 03:35 | SW 8 | 10.00 | Fair | CLR | 41 | 26.4 | 56% | 36 | 29.75 | 0.0 | ||||||
| 08 | 03:15 | W 7 | 10.00 | Fair | CLR | 41.9 | 25.2 | 52% | 38 | 29.75 | 0.0 | ||||||
| 08 | 02:55 | W 5 | 10.00 | Fair | CLR | 42.6 | 25 | 50% | 40 | 29.76 | 0.0 | ||||||
| 08 | 02:35 | Vrbl 3 | 10.00 | Fair | CLR | 42.1 | 25.3 | 52% | 29.76 | 0.0 | |||||||
| 08 | 02:15 | SW 6 | 10.00 | Fair | CLR | 39.7 | 27 | 60% | 36 | 29.76 | 0.0 | ||||||
| 08 | 01:55 | SW 7 | 10.00 | Fair | CLR | 39.4 | 26.8 | 61% | 35 | 29.76 | 0.0 | ||||||
| 08 | 01:35 | SW 8 | 9.00 | Fair | CLR | 40.3 | 26.2 | 57% | 35 | 29.76 | 0.0 | ||||||
| 08 | 01:15 | SW 7 | 10.00 | Fair | CLR | 41.2 | 26.2 | 55% | 37 | 29.76 | 0.0 | ||||||
| 08 | 00:55 | SW 8 | 10.00 | Fair | CLR | 41.2 | 26.2 | 55% | 37 | 29.77 | 0.0 | ||||||
| 08 | 00:35 | SW 6 | 10.00 | A Few Clouds | FEW320 | 41.5 | 25.5 | 53% | 38 | 29.77 | 0.0 | ||||||
| 08 | 00:15 | SW 6 | 10.00 | A Few Clouds | FEW320 | 42.8 | 24.4 | 48% | 40 | 29.77 | 0.0 | ||||||
| 07 | 23:55 | SW 5 | 9.00 | Fair | CLR | 43.7 | 24.3 | 46% | 42 | 29.78 | 0.0 | ||||||
| 07 | 23:35 | SW 6 | 9.00 | Fair | CLR | 42.6 | 26.1 | 52% | 40 | 29.78 | 0.0 | ||||||
| 07 | 23:15 | SW 7 | 8.00 | Fair | CLR | 43.2 | 25.5 | 50% | 40 | 29.79 | 0.0 | ||||||
| 07 | 22:55 | SW 5 | 7.00 | Fair | CLR | 45.1 | 24.8 | 45% | 43 | 29.79 | 0.0 | ||||||
| 07 | 22:35 | SW 3 | 9.00 | Fair | CLR | 44.8 | 23.5 | 43% | 29.79 | 0.0 | |||||||
| 07 | 22:15 | SW 6 | 9.00 | Fair | CLR | 47.3 | 23.7 | 40% | 45 | 29.79 | 0.0 | ||||||
| 07 | 21:55 | SW 5 | 9.00 | Fair | CLR | 48 | 23.4 | 38% | 47 | 29.79 | 0.0 | ||||||
| 07 | 21:35 | SW 6 | 9.00 | Fair | CLR | 48 | 21 | 34% | 46 | 29.79 | 0.0 | ||||||
| 07 | 21:15 | Calm | 8.00 | Fair | CLR | 50 | 21 | 32% | 29.79 | 0.0 | |||||||
| 07 | 20:55 | W 5 | 8.00 | Fair | CLR | 52.5 | 21.2 | 29% | 29.78 | 0.0 | |||||||
| 07 | 20:35 | W 6 | 8.00 | Fair | CLR | 52.3 | 21.6 | 30% | 29.78 | 0.0 | |||||||
| 07 | 20:15 | W 7 | 9.00 | Fair | CLR | 53.4 | 21.4 | 29% | 29.78 | 0.0 | |||||||
| 07 | 19:55 | NW 7 | 9.00 | Fair | CLR | 55.2 | 22.5 | 28% | 29.78 | 0.0 | |||||||
| 07 | 19:35 | NW 10 | 10.00 | Fair | CLR | 56.3 | 22.8 | 27% | 29.78 | 0.0 | |||||||
| 07 | 19:15 | NW 14 | 10.00 | Fair | CLR | 57 | 21.6 | 25% | 29.78 | 0.0 | |||||||
| 07 | 18:55 | W 13 | 9.00 | Fair | CLR | 56.8 | 21.2 | 25% | 29.78 | 0.0 | |||||||
| 07 | 18:35 | NW 12 G 22 | 10.00 | A Few Clouds | FEW090 | 58.3 | 22.1 | 25% | 29.78 | 0.0 | |||||||
| 07 | 18:15 | NW 12 | 9.00 | Fair | CLR | 56.7 | 21.6 | 26% | 29.79 | 0.0 | |||||||
| 07 | 17:55 | NW 13 G 20 | 10.00 | Fair | CLR | 57.9 | 21.6 | 24% | 29.79 | 0.0 | |||||||
| 07 | 17:35 | NW 14 | 10.00 | A Few Clouds | FEW085 | 58.6 | 22.1 | 24% | 29.79 | 0.0 | |||||||
| 07 | 17:15 | W 13 G 21 | 10.00 | Partly Cloudy | SCT085 | 58.3 | 21.7 | 24% | 29.8 | 0.0 | |||||||
| 07 | 16:55 | W 13 | 9.00 | A Few Clouds | FEW085 | 55.6 | 20.5 | 25% | 29.8 | 0.0 | |||||||
| 07 | 16:35 | NW 13 | 9.00 | A Few Clouds | FEW085 | 56.8 | 20.7 | 24% | 29.81 | 0.0 | |||||||
| 07 | 16:15 | W 16 G 21 | 9.00 | Partly Cloudy | SCT080 | 58.8 | 21.9 | 24% | 29.81 | 0.0 | |||||||
| 07 | 15:55 | W 16 | 10.00 | Partly Cloudy | SCT080 | 57.6 | 22.6 | 26% | 29.81 | 0.0 | |||||||
| 07 | 15:35 | W 14 G 24 | 9.00 | Mostly Cloudy | BKN080 | 58.6 | 23.2 | 25% | 29.82 | 0.0 | |||||||
| 07 | 15:15 | W 16 G 23 | 10.00 | Mostly Cloudy | BKN080 | 56.5 | 21.9 | 26% | 29.82 | 0.0 | |||||||
| 07 | 14:55 | W 16 G 20 | 10.00 | Partly Cloudy | SCT075 | 56.7 | 21.9 | 26% | 29.83 | 0.0 | |||||||
| 07 | 14:35 | W 12 | 9.00 | Mostly Cloudy | BKN075 | 53.8 | 20.8 | 28% | 29.83 | 0.0 | |||||||
| 07 | 14:15 | W 17 G 23 | 10.00 | Mostly Cloudy | BKN075 | 56.8 | 22.1 | 26% | 29.83 | 0.0 | |||||||
| 07 | 13:55 | W 15 G 23 | 10.00 | Mostly Cloudy | BKN075 | 55.8 | 21.7 | 27% | 29.84 | 0.0 | |||||||
| 07 | 13:35 | W 13 G 18 | 9.00 | Mostly Cloudy | BKN075 | 55.6 | 22.5 | 28% | 29.84 | 0.0 | |||||||
| 07 | 13:15 | W 7 G 22 | 9.00 | A Few Clouds | FEW070 | 54 | 22.6 | 30% | 29.85 | 0.0 | |||||||
| 07 | 12:55 | W 10 G 22 | 10.00 | Mostly Cloudy | BKN070 | 53.6 | 22.1 | 29% | 29.85 | 0.0 | |||||||
| 07 | 12:35 | W 13 G 21 | 10.00 | A Few Clouds | FEW070 | 52.7 | 20.1 | 28% | 29.87 | 0.0 | |||||||
| 07 | 12:15 | W 10 | 9.00 | Partly Cloudy | SCT070 | 51.1 | 20.5 | 30% | 29.87 | 0.0 | |||||||
| 07 | 11:55 | NW 6 | 10.00 | Partly Cloudy | SCT070 | 50.2 | 19.8 | 30% | 29.88 | 0.0 | |||||||
| 07 | 11:35 | NW 13 | 10.00 | Fair | CLR | 50.5 | 20.1 | 30% | 29.88 | 0.0 | |||||||
| 07 | 11:15 | W 8 | 10.00 | Fair | CLR | 50 | 19.8 | 30% | 47 | 29.89 | 0.0 | ||||||
| 07 | 10:55 | SW 7 | 10.00 | Fair | CLR | 50.2 | 20.3 | 31% | 29.89 | 0.0 | |||||||
| 07 | 10:35 | W 8 | 10.00 | Fair | CLR | 48.7 | 23 | 36% | 46 | 29.89 | 0.0 | ||||||
| 07 | 10:15 | W 7 | 10.00 | Fair | CLR | 48.4 | 24.6 | 39% | 46 | 29.89 | 0.0 | ||||||
| 07 | 09:55 | SW 10 | 10.00 | Fair | CLR | 47.3 | 21.7 | 36% | 43 | 29.89 | 0.0 | ||||||
| 07 | 09:35 | SW 9 | 10.00 | Fair | CLR | 46.8 | 21.2 | 36% | 43 | 29.89 | 0.0 | ||||||
| 07 | 09:15 | SW 7 | 10.00 | Fair | CLR | 45.3 | 23.2 | 42% | 42 | 29.89 | 0.0 | ||||||
| 07 | 08:55 | S 5 | 10.00 | Fair | CLR | 43.5 | 24.1 | 46% | 41 | 29.89 | 0.0 | ||||||
| 07 | 08:35 | SW 5 | 10.00 | Fair | CLR | 42.1 | 25 | 51% | 40 | 29.89 | 0.0 | ||||||
| 07 | 08:15 | SW 7 | 10.00 | Fair | CLR | 39.9 | 26.8 | 59% | 36 | 29.89 | 0.0 | ||||||
| 07 | 07:55 | S 5 | 10.00 | Fair | CLR | 36.7 | 28.9 | 74% | 33 | 29.89 | 0.0 | ||||||
| 07 | 07:35 | S 5 | 10.00 | Fair | CLR | 33.4 | 28.2 | 81% | 30 | 29.89 | 0.0 | ||||||
| 07 | 07:15 | S 6 | 10.00 | Fair | CLR | 30.6 | 26.8 | 86% | 25 | 29.89 | 0.0 | ||||||
| 07 | 06:55 | S 3 | 9.00 | Fair | CLR | 28.6 | 24.8 | 86% | 29.89 | 0.0 | |||||||
| 07 | 06:35 | S 6 | 10.00 | Fair | CLR | 25.9 | 22.6 | 88% | 20 | 29.88 | 0.0 | ||||||
| 07 | 06:15 | SW 6 | 9.00 | Fair | CLR | 27.5 | 24.3 | 88% | 22 | 29.89 | 0.0 | ||||||
| 07 | 05:55 | SW 6 | 9.00 | Fair | CLR | 26.8 | 23.7 | 88% | 21 | 29.89 | 0.0 | ||||||
| 07 | 05:35 | SW 5 | 10.00 | Fair | CLR | 27.9 | 24.3 | 86% | 23 | 29.89 | 0.0 | ||||||
| 07 | 05:15 | SW 5 | 10.00 | Fair | CLR | 27.5 | 23.7 | 86% | 23 | 29.89 | 0.0 | ||||||
| 07 | 04:55 | SW 3 | 10.00 | Fair | CLR | 28.2 | 23.7 | 83% | 29.89 | 0.0 | |||||||
| 07 | 04:35 | SW 3 | 10.00 | Fair | CLR | 28.6 | 23 | 80% | 29.9 | 0.0 | |||||||
| 07 | 04:15 | Calm | 10.00 | Fair | CLR | 29.7 | 23.5 | 78% | 29.9 | 0.0 | |||||||
| 07 | 03:55 | SW 3 | 10.00 | Fair | CLR | 29.1 | 23.7 | 80% | 29.89 | 0.0 | |||||||
| 07 | 03:35 | S 3 | 10.00 | Fair | CLR | 30 | 24.3 | 79% | 29.9 | 0.0 | |||||||
| 07 | 03:15 | SW 3 | 10.00 | Fair | CLR | 28.9 | 24.8 | 85% | 29.9 | 0.0 | |||||||
| 07 | 02:55 | SW 5 | 10.00 | Fair | CLR | 28.9 | 25.3 | 86% | 25 | 29.9 | 0.0 | ||||||
| 07 | 02:35 | SW 6 | 10.00 | Fair | CLR | 28.6 | 25.3 | 88% | 23 | 29.9 | 0.0 | ||||||
| 07 | 02:15 | SW 6 | 10.00 | Fair | CLR | 28 | 25.2 | 89% | 22 | 29.91 | 0.0 | ||||||
| 07 | 01:55 | SW 5 | 10.00 | Fair | CLR | 29.3 | 25.2 | 85% | 25 | 29.91 | 0.0 | ||||||
| 07 | 01:35 | SW 6 | 10.00 | Fair | CLR | 28.4 | 23.7 | 83% | 23 | 29.92 | 0.0 | ||||||
| 07 | 01:15 | S 6 | 10.00 | Fair | CLR | 27.1 | 22.8 | 84% | 21 | 29.92 | 0.0 | ||||||
| 07 | 00:55 | S 5 | 10.00 | Fair | CLR | 31.3 | 22.3 | 69% | 27 | 29.92 | 0.0 | ||||||
| 07 | 00:35 | Calm | 10.00 | Fair | CLR | 32.7 | 22.5 | 66% | 29.93 | 0.0 | |||||||
| 07 | 00:15 | Calm | 10.00 | Fair | CLR | 33.1 | 22.1 | 64% | 29.93 | 0.0 | |||||||
| 06 | 23:55 | Calm | 10.00 | Fair | CLR | 30.2 | 22.5 | 73% | 29.94 | 0.0 | |||||||
| 06 | 23:35 | NW 3 | 10.00 | Fair | CLR | 35.1 | 23.4 | 62% | 29.95 | 0.0 | |||||||
| 06 | 23:15 | NW 3 | 10.00 | Fair | CLR | 34.9 | 23.4 | 63% | 29.95 | 0.0 | |||||||
| 06 | 22:55 | W 5 | 10.00 | Fair | CLR | 34.5 | 22.5 | 61% | 31 | 29.95 | 0.0 | ||||||
| 06 | 22:35 | W 6 | 10.00 | Fair | CLR | 36.1 | 22.3 | 57% | 32 | 29.95 | 0.0 | ||||||
| 06 | 22:15 | W 6 | 10.00 | Fair | CLR | 35.6 | 21.9 | 58% | 31 | 29.96 | 0.0 | ||||||
| 06 | 21:55 | W 6 | 10.00 | Partly Cloudy | SCT060 | 37 | 22.5 | 56% | 33 | 29.96 | 0.0 | ||||||
| 06 | 21:35 | NW 5 | 10.00 | Overcast | OVC060 | 37.8 | 23.2 | 56% | 35 | 29.96 | 0.0 | ||||||
| 06 | 21:15 | NW 5 | 10.00 | Overcast | OVC065 | 37.8 | 23.5 | 57% | 35 | 29.96 | 0.0 | ||||||
| 06 | 20:55 | NW 6 | 10.00 | Overcast | OVC065 | 39 | 22.6 | 52% | 35 | 29.95 | 0.0 | ||||||
| 06 | 20:35 | NW 5 | 10.00 | Overcast | OVC065 | 39.6 | 22.8 | 51% | 37 | 29.95 | 0.0 | ||||||
| 06 | 20:15 | NW 6 | 10.00 | Overcast | OVC065 | 40.1 | 22.6 | 50% | 37 | 29.95 | 0.0 | ||||||
| 06 | 19:55 | W 7 | 9.00 | Overcast | OVC065 | 40.5 | 23 | 50% | 36 | 29.95 | 0.0 | ||||||
| 06 | 19:35 | NW 8 | 10.00 | Overcast | OVC060 | 40.8 | 22.6 | 48% | 36 | 29.95 | 0.0 | ||||||
| 06 | 19:15 | NW 9 | 10.00 | Overcast | OVC060 | 41.2 | 22.8 | 48% | 36 | 29.96 | 0.0 | ||||||
| 06 | 18:55 | NW 10 | 9.00 | Overcast | FEW049 OVC060 | 41.2 | 22.8 | 48% | 36 | 29.97 | 0.0 | ||||||
| 06 | 18:35 | NW 12 | 10.00 | Overcast | SCT049 OVC055 | 41.2 | 22.5 | 47% | 35 | 29.97 | 0.0 | ||||||
| 06 | 18:15 | NW 13 | 10.00 | Overcast | SCT047 OVC060 | 41.4 | 22.1 | 46% | 35 | 29.97 | 0.0 | ||||||
| 06 | 17:55 | W 12 | 10.00 | Overcast | BKN046 OVC060 | 41.9 | 22.6 | 46% | 36 | 29.97 | 0.0 | ||||||
| 06 | 17:35 | NW 10 | 10.00 | Overcast | OVC048 | 41.9 | 22.5 | 46% | 36 | 29.98 | 0.0 | ||||||
| 06 | 17:15 | NW 12 | 10.00 | Overcast | OVC047 | 41.4 | 21.6 | 45% | 35 | 29.98 | 0.0 | ||||||
| 06 | 16:55 | W 12 G 22 | 10.00 | Overcast | OVC048 | 42.1 | 22.3 | 45% | 36 | 29.98 | 0.0 | ||||||
| 06 | 16:35 | NW 14 | 10.00 | Overcast | OVC047 | 41.7 | 21.9 | 45% | 35 | 29.99 | 0.0 | ||||||
| 06 | 16:15 | NW 15 G 21 | 10.00 | Overcast | OVC047 | 41.5 | 21.7 | 45% | 34 | 29.99 | 0.0 | ||||||
| 06 | 15:55 | W 13 | 10.00 | Overcast | OVC044 | 42.3 | 22.6 | 46% | 36 | 30 | 0.0 | ||||||
| 06 | 15:35 | W 16 | 10.00 | Overcast | OVC043 | 40.8 | 22.3 | 48% | 33 | 30 | 0.0 | ||||||
| 06 | 15:15 | W 13 | 10.00 | Overcast | OVC043 | 40.6 | 21.9 | 47% | 34 | 30.01 | 0.0 | ||||||
| 06 | 14:55 | NW 17 | 10.00 | Overcast | OVC043 | 40.8 | 21.9 | 47% | 33 | 30.01 | 0.0 | ||||||
| 06 | 14:35 | W 16 G 24 | 10.00 | Overcast | OVC043 | 41 | 21.7 | 46% | 33 | 30.01 | 0.0 | ||||||
| 06 | 14:15 | NW 15 | 10.00 | Overcast | OVC043 | 41 | 21.7 | 46% | 34 | 30.01 | 0.0 | ||||||
| 06 | 13:55 | W 15 G 23 | 10.00 | Overcast | OVC043 | 41 | 21.4 | 46% | 34 | 30.01 | 0.0 | ||||||
| 06 | 13:35 | W 12 G 22 | 10.00 | Overcast | OVC043 | 40.6 | 21.6 | 47% | 34 | 30.01 | 0.0 | ||||||
| 06 | 13:15 | W 13 G 21 | 10.00 | Overcast | OVC043 | 40.6 | 21.4 | 46% | 34 | 30.01 | 0.0 | ||||||
| 06 | 12:55 | NW 14 G 22 | 10.00 | Overcast | OVC042 | 41 | 21.4 | 46% | 34 | 30.02 | 0.0 | ||||||
| 06 | 12:35 | NW 13 | 10.00 | Overcast | OVC040 | 39.9 | 20.8 | 46% | 33 | 30.02 | 0.0 | ||||||
| 06 | 12:15 | NW 13 | 10.00 | Overcast | OVC038 | 39.4 | 21.4 | 49% | 32 | 30.02 | 0.0 | ||||||
| 06 | 11:55 | W 12 | 10.00 | Overcast | OVC038 | 38.3 | 21.4 | 51% | 32 | 30.03 | 0.0 | ||||||
| 06 | 11:35 | NW 18 | 10.00 | Overcast | OVC037 | 37.9 | 21 | 51% | 29 | 30.03 | 0.0 | ||||||
| 06 | 11:15 | NW 16 | 10.00 | Overcast | OVC037 | 37.4 | 21.2 | 52% | 29 | 30.03 | 0.0 | ||||||
| 06 | 10:55 | NW 14 | 10.00 | Overcast | OVC037 | 37 | 21.2 | 53% | 29 | 30.03 | 0.0 | ||||||
| 06 | 10:35 | NW 16 | 10.00 | Overcast | OVC037 | 36.5 | 21 | 53% | 28 | 30.03 | 0.0 | ||||||
| 06 | 10:15 | NW 13 | 10.00 | Overcast | OVC037 | 36 | 21.9 | 57% | 28 | 30.03 | 0.0 | ||||||
| 06 | 09:55 | NW 13 | 10.00 | Overcast | OVC038 | 36 | 21.4 | 55% | 28 | 30.03 | 0.0 | ||||||
| 06 | 09:35 | NW 13 | 10.00 | Overcast | OVC037 | 35.8 | 21.7 | 57% | 28 | 30.03 | 0.0 | ||||||
| 06 | 09:15 | NW 14 | 10.00 | Overcast | OVC036 | 35.6 | 21.6 | 57% | 27 | 30.03 | 0.0 | ||||||
| 06 | 08:55 | NW 10 | 9.00 | Overcast | BKN034 OVC042 | 35.6 | 22.6 | 59% | 29 | 30.02 | 0.0 | ||||||
| 06 | 08:35 | NW 10 | 10.00 | Overcast | BKN034 OVC042 | 35.4 | 23.4 | 62% | 28 | 30.02 | 0.0 | ||||||
| 06 | 08:15 | NW 9 | 10.00 | Overcast | OVC040 | 35.6 | 23.7 | 62% | 29 | 30.02 | 0.0 | ||||||
| 06 | 07:55 | NW 9 | 10.00 | Overcast | OVC039 | 35.2 | 23.5 | 62% | 29 | 30.01 | 0.0 | ||||||
| 06 | 07:35 | NW 10 | 10.00 | Overcast | OVC039 | 35.1 | 22.8 | 61% | 28 | 30 | 0.0 | ||||||
| 06 | 07:15 | NW 10 | 10.00 | Overcast | OVC040 | 34.9 | 22.6 | 61% | 28 | 29.99 | 0.0 | ||||||
| 06 | 06:55 | NW 3 | 9.00 | Overcast | BKN038 OVC044 | 34.2 | 24.4 | 68% | 29.99 | 0.0 | |||||||
| 06 | 06:35 | NW 3 | 9.00 | Overcast | SCT035 OVC045 | 33.8 | 24.3 | 68% | 29.98 | 0.0 | |||||||
| 06 | 06:15 | NW 6 | 9.00 | Overcast | OVC044 | 34.2 | 23.4 | 65% | 30 | 29.98 | 0.0 | ||||||
| 06 | 05:55 | NW 6 | 10.00 | Overcast | OVC046 | 34.2 | 23.2 | 64% | 30 | 29.98 | 0.0 | ||||||
| 06 | 05:35 | N 5 | 10.00 | Overcast | OVC046 | 34.2 | 23.2 | 64% | 31 | 29.97 | 0.0 | ||||||
| 06 | 05:15 | N 6 | 10.00 | Overcast | OVC046 | 34.3 | 22.8 | 63% | 30 | 29.97 | 0.0 | ||||||
| 06 | 04:55 | N 5 | 10.00 | Overcast | OVC047 | 34.2 | 23.2 | 64% | 31 | 29.97 | 0.0 | ||||||
| 06 | 04:35 | NW 6 | 10.00 | Overcast | OVC046 | 34.2 | 22.8 | 63% | 30 | 29.97 | 0.0 | ||||||
| 06 | 04:15 | NW 6 | 10.00 | Overcast | OVC047 | 34.3 | 23 | 63% | 30 | 29.96 | 0.0 | ||||||
| 06 | 03:55 | N 5 | 10.00 | Overcast | OVC047 | 34.2 | 23.4 | 65% | 31 | 29.96 | 0.0 | ||||||
| 06 | 03:35 | N 3 | 10.00 | Overcast | OVC048 | 33.8 | 24.3 | 68% | 29.96 | 0.0 | |||||||
| 06 | 03:15 | N 5 | 10.00 | Overcast | OVC048 | 33.8 | 24.1 | 68% | 30 | 29.96 | 0.0 | ||||||
| 06 | 02:55 | NW 5 | 10.00 | Overcast | OVC050 | 33.6 | 23.9 | 68% | 30 | 29.96 | 0.0 | ||||||
| 06 | 02:35 | NW 5 | 10.00 | Overcast | OVC050 | 33.6 | 23.7 | 67% | 30 | 29.96 | 0.0 | ||||||
| 06 | 02:15 | NW 6 | 10.00 | Overcast | OVC050 | 33.4 | 23.5 | 67% | 29 | 29.96 | 0.0 | ||||||
| 06 | 01:55 | N 7 | 10.00 | Overcast | OVC050 | 33.6 | 23.4 | 66% | 28 | 29.95 | 0.0 | ||||||
| 06 | 01:35 | NW 7 | 10.00 | Overcast | OVC050 | 32.4 | 23.7 | 70% | 27 | 29.95 | 0.0 | ||||||
| 06 | 01:15 | NW 7 | 10.00 | Overcast | OVC050 | 32.2 | 23.9 | 72% | 26 | 29.96 | 0.0 | ||||||
| 06 | 00:55 | NW 6 | 10.00 | Overcast | OVC050 | 32.4 | 23.9 | 71% | 27 | 29.96 | 0.0 | ||||||
| 06 | 00:35 | NW 5 | 10.00 | Overcast | OVC055 | 32.5 | 23.9 | 71% | 29 | 29.95 | 0.0 | ||||||
| 06 | 00:15 | NW 6 | 10.00 | Overcast | OVC055 | 32.7 | 23.7 | 69% | 28 | 29.95 | 0.0 | ||||||
| 05 | 23:55 | W 5 | 10.00 | Mostly Cloudy | BKN055 | 33.4 | 22.8 | 65% | 30 | 29.95 | 0.0 | ||||||
| 05 | 23:35 | NW 5 | 10.00 | Fair | CLR | 32.5 | 22.6 | 67% | 29 | 29.95 | 0.0 | ||||||
| 05 | 23:15 | NW 6 | 10.00 | Fair | CLR | 31.3 | 21.7 | 68% | 26 | 29.94 | 0.0 | ||||||
| 05 | 22:55 | NW 7 | 10.00 | Fair | CLR | 32.9 | 21.2 | 62% | 27 | 29.94 | 0.0 | ||||||
| 05 | 22:15 | NW 9 | 10.00 | Fair | CLR | 32.4 | 21.4 | 64% | 25 | 29.93 | 0.0 | ||||||
| 05 | 21:55 | NW 7 | 10.00 | Fair | CLR | 33.4 | 20.8 | 60% | 28 | 29.93 | 0.0 | ||||||
| 05 | 21:35 | NW 7 | 10.00 | Fair | CLR | 35.1 | 20.5 | 55% | 30 | 29.93 | 0.0 | ||||||
| 05 | 21:15 | N 9 | 9.00 | Fair | CLR | 37.2 | 20.3 | 50% | 31 | 29.92 | 0.0 | ||||||
| 05 | 20:55 | NW 9 | 10.00 | Fair | CLR | 37.6 | 20.3 | 50% | 32 | 29.91 | 0.0 | ||||||
| 05 | 20:35 | NW 13 | 10.00 | Partly Cloudy | SCT050 | 38.7 | 20.3 | 48% | 32 | 29.91 | 0.0 | ||||||
| 05 | 20:15 | NW 16 G 23 | 10.00 | Mostly Cloudy | BKN048 | 40.1 | 20.5 | 45% | 32 | 29.91 | 0.0 | ||||||
| 05 | 19:55 | NW 14 | 10.00 | A Few Clouds | FEW047 | 39.9 | 20.7 | 46% | 33 | 29.9 | 0.0 | ||||||
| 05 | 19:35 | NW 17 | 10.00 | Partly Cloudy | SCT047 | 41.4 | 20.7 | 44% | 34 | 29.89 | 0.0 | ||||||
| 05 | 19:15 | N 17 | 10.00 | Mostly Cloudy | BKN047 | 41.9 | 21 | 43% | 34 | 29.89 | 0.0 | ||||||
| 05 | 18:55 | NW 21 | 10.00 | Partly Cloudy and Breezy | SCT048 | 42.6 | 20.8 | 42% | 34 | 29.89 | 0.0 | ||||||
| 05 | 18:35 | NW 18 G 29 | 10.00 | A Few Clouds | FEW049 | 43.5 | 21.4 | 41% | 36 | 29.89 | 0.0 | ||||||
| 05 | 18:15 | NW 20 | 10.00 | A Few Clouds | FEW048 | 43.5 | 21.2 | 41% | 36 | 29.89 | 0.0 | ||||||
| 05 | 17:55 | NW 21 G 28 | 10.00 | A Few Clouds and Breezy | FEW048 | 43.9 | 21.7 | 41% | 36 | 29.89 | 0.0 | ||||||
| 05 | 17:35 | NW 17 | 10.00 | A Few Clouds | FEW049 | 43.3 | 21.7 | 42% | 36 | 29.88 | 0.0 | ||||||
| 05 | 17:15 | NW 23 G 28 | 10.00 | Partly Cloudy and Breezy | SCT050 | 44.8 | 21.6 | 40% | 37 | 29.88 | 0.0 | ||||||
| 05 | 16:55 | NW 22 G 31 | 10.00 | Mostly Cloudy and Breezy | BKN050 | 44.2 | 20.8 | 39% | 36 | 29.88 | 0.0 | ||||||
| 05 | 16:35 | NW 22 G 25 | 9.00 | Mostly Cloudy and Breezy | BKN050 | 46.2 | 21.2 | 37% | 39 | 29.88 | 0.0 | ||||||
| 05 | 16:15 | NW 18 G 28 | 10.00 | Mostly Cloudy | BKN055 | 46.2 | 21.6 | 38% | 40 | 29.88 | 0.0 | ||||||
| 05 | 15:55 | NW 17 | 10.00 | Overcast | OVC055 | 45 | 21.4 | 39% | 38 | 29.88 | 0.0 | ||||||
| 05 | 15:35 | NW 22 G 29 | 10.00 | Overcast and Breezy | OVC050 | 46 | 21.9 | 38% | 39 | 29.88 | 0.0 | ||||||
| 05 | 15:15 | NW 23 G 28 | 10.00 | Overcast and Breezy | OVC050 | 45.3 | 21.9 | 40% | 37 | 29.88 | 0.0 | ||||||
| 05 | 14:55 | NW 20 G 24 | 10.00 | Mostly Cloudy | BKN050 | 44.2 | 21.6 | 41% | 37 | 29.88 | 0.0 | ||||||
| 05 | 14:35 | NW 20 G 25 | 10.00 | Overcast | OVC055 | 46.2 | 22.3 | 39% | 39 | 29.87 | 0.0 | ||||||
| 05 | 14:15 | W 15 | 10.00 | Overcast | OVC055 | 46.9 | 22.5 | 38% | 41 | 29.87 | 0.0 | ||||||
| 05 | 13:55 | NW 23 G 29 | 10.00 | Overcast and Breezy | OVC055 | 45.3 | 21.4 | 39% | 37 | 29.87 | 0.0 | ||||||
| 05 | 13:35 | NW 14 G 29 | 10.00 | Overcast | OVC055 | 45.3 | 21.4 | 39% | 40 | 29.87 | 0.0 | ||||||
| 05 | 13:15 | NW 16 G 23 | 10.00 | Overcast | OVC055 | 44.8 | 20.8 | 39% | 38 | 29.86 | 0.0 | ||||||
| 05 | 12:55 | W 17 | 10.00 | Overcast | OVC060 | 44.4 | 20.7 | 39% | 37 | 29.86 | 0.0 | ||||||
| 05 | 12:35 | NW 18 G 25 | 10.00 | Overcast | OVC055 | 43.7 | 19.8 | 38% | 36 | 29.85 | 0.0 | ||||||
| 05 | 12:15 | NW 17 G 24 | 10.00 | Overcast | OVC050 | 43.9 | 21.2 | 41% | 37 | 29.86 | 0.0 | ||||||
| 05 | 11:55 | NW 18 | 10.00 | Overcast | OVC055 | 43 | 20.8 | 41% | 35 | 29.86 | 0.0 | ||||||
| 05 | 11:35 | NW 17 | 10.00 | Overcast | OVC050 | 43.9 | 20.8 | 40% | 37 | 29.85 | 0.0 | ||||||
| 05 | 11:15 | NW 20 | 10.00 | Overcast | BKN055 OVC100 | 43.9 | 20.5 | 39% | 36 | 29.85 | 0.0 | ||||||
| 05 | 10:55 | NW 17 | 10.00 | Mostly Cloudy | BKN050 BKN060 | 43.9 | 21.7 | 41% | 37 | 29.85 | 0.0 | ||||||
| 05 | 10:35 | NW 20 | 10.00 | A Few Clouds | FEW046 | 45 | 22.5 | 41% | 38 | 29.85 | 0.0 | ||||||
| 05 | 10:15 | NW 16 G 24 | 10.00 | A Few Clouds | FEW040 | 43.2 | 23.9 | 47% | 36 | 29.85 | 0.0 | ||||||
| 05 | 09:55 | NW 12 | 10.00 | A Few Clouds | FEW039 | 42.6 | 24.1 | 48% | 37 | 29.85 | 0.0 | ||||||
| 05 | 09:35 | W 9 | 10.00 | Fair | CLR | 41.5 | 22.6 | 47% | 36 | 29.85 | 0.0 | ||||||
| 05 | 09:15 | W 13 G 18 | 10.00 | Fair | CLR | 40.5 | 23.4 | 51% | 34 | 29.84 | 0.0 | ||||||
| 05 | 08:55 | W 10 | 10.00 | Fair | CLR | 39.6 | 23.5 | 53% | 34 | 29.83 | 0.0 | ||||||
| 05 | 08:35 | NW 10 | 10.00 | Fair | CLR | 38.7 | 22.8 | 53% | 32 | 29.83 | 0.0 | ||||||
| 05 | 08:15 | W 10 | 10.00 | Fair | CLR | 38.1 | 23.7 | 56% | 32 | 29.83 | 0.0 | ||||||
| 05 | 07:55 | NW 7 | 10.00 | Fair | CLR | 37.2 | 23.5 | 58% | 32 | 29.82 | 0.0 | ||||||
| 05 | 07:35 | W 7 | 10.00 | Fair | CLR | 36 | 23.7 | 61% | 31 | 29.81 | 0.0 | ||||||
| Date | Time (cdt) | Wind (mph) | Vis. (mi.) | Weather | Sky Cond. | Air | Dwpt | Max. | Min. | Relative Humidity | Wind Chill (°F) | Heat Index (°F) | altimeter (in) | sea level (mb) | 1 hr | 3 hr | 6 hr |
| 6 hour | |||||||||||||||||
| Temperature (ºF) | Pressure | Precipitation (in) | |||||||||||||||